This is the latest recevied weather packets stored in our database for station/object BG4WDV-11. If no packets are shown the sender has not sent any weather packets the latest 1 day(s).
| Time | Temp. | Humidity | Pressure | Rain* | Wind** | Luminosity | Snow |
|---|---|---|---|---|---|---|---|
| 1778060265 | 29.44° C | 42% | 1006.6 hPa | 0 mm | 0.45 m/s, 45° | - | - |
| 1778060205 | 29.44° C | 42% | 1006.7 hPa | 0 mm | 0.45 m/s, 45° | - | - |
| 1778060146 | 29.44° C | 42% | 1006.5 hPa | 0 mm | 0.45 m/s, 45° | - | - |
| 1778060086 | 29.44° C | 42% | 1006.6 hPa | 0 mm | 0.45 m/s, 45° | - | - |
| 1778060026 | 29.44° C | 42% | 1006.6 hPa | 0 mm | 0.45 m/s, 45° | - | - |
| 1778059966 | 29.44° C | 42% | 1006.6 hPa | 0 mm | 0.45 m/s, 0° | - | - |
| 1778059906 | 29.44° C | 42% | 1006.5 hPa | 0 mm | 0.89 m/s, 45° | - | - |
| 1778059846 | 29.44° C | 42% | 1006.5 hPa | 0 mm | 0.89 m/s, 45° | - | - |
| 1778059786 | 29.44° C | 43% | 1006.5 hPa | 0 mm | 0.89 m/s, 45° | - | - |
| 1778059726 | 28.89° C | 43% | 1006.4 hPa | 0 mm | 0.89 m/s, 0° | - | - |
| 1778059666 | 28.89° C | 43% | 1006.4 hPa | 0 mm | 0.89 m/s, 0° | - | - |
| 1778059606 | 28.89° C | 43% | 1006.5 hPa | 0 mm | 0.89 m/s, 45° | - | - |
| 1778059546 | 28.89° C | 43% | 1006.5 hPa | 0 mm | 0.45 m/s, 0° | - | - |
| 1778059486 | 28.89° C | 42% | 1006.5 hPa | 0 mm | 0.45 m/s, 45° | - | - |
| 1778059426 | 28.89° C | 42% | 1006.4 hPa | 0 mm | 0.89 m/s, 0° | - | - |
| 1778059366 | 29.44° C | 42% | 1006.4 hPa | 0 mm | 1.34 m/s, 45° | - | - |
| 1778059306 | 29.44° C | 42% | 1006.3 hPa | 0 mm | 0.89 m/s, 0° | - | - |
| 1778059246 | 29.44° C | 42% | 1006.4 hPa | 0 mm | 1.34 m/s, 0° | - | - |
| 1778059185 | 29.44° C | 41% | 1006.2 hPa | 0 mm | 0.89 m/s, 0° | - | - |
| 1778059126 | 29.44° C | 41% | 1006.3 hPa | 0 mm | 0.89 m/s, 0° | - | - |
| 1778059066 | 29.44° C | 41% | 1006.3 hPa | 0 mm | 0.89 m/s, 45° | - | - |
| 1778059005 | 29.44° C | 41% | 1006.4 hPa | 0 mm | 0.89 m/s, 45° | - | - |
| 1778058945 | 29.44° C | 42% | 1006.3 hPa | 0 mm | 0.45 m/s, 45° | - | - |
| 1778058885 | 29.44° C | 42% | 1006.4 hPa | 0 mm | 0.45 m/s, 45° | - | - |
| 1778058826 | 29.44° C | 42% | 1006.2 hPa | 0 mm | 1.34 m/s, 45° | - | - |
* Rain latest hour (hover to see other rain measurements)
** Current wind speed in m/s (hover to see current wind gust speed)